This is the latest recevied weather packets stored in our database for station/object EA3HRE-13. If no packets are shown the sender has not sent any weather packets the latest 10 day(s).
| Time | Temp. | Humidity | Pressure | Rain* | Wind** | Luminosity | Snow |
|---|---|---|---|---|---|---|---|
| 1777578650 | 18.33° C | 100% | 1017.8 hPa | 0 mm | - | - | - |
| 1777578020 | 18.33° C | 100% | 1017.8 hPa | 0 mm | - | - | - |
| 1777577420 | 18.89° C | 100% | 1017.6 hPa | 0 mm | - | - | - |
| 1777576820 | 18.89° C | 100% | 1017.6 hPa | 0 mm | - | - | - |
| 1777576220 | 18.89° C | 100% | 1017.5 hPa | 0 mm | - | - | - |
| 1777575590 | 18.89° C | 100% | 1017.4 hPa | 0 mm | - | - | - |
| 1777574981 | 19.44° C | 100% | 1017.3 hPa | 0 mm | - | - | - |
| 1777574351 | 19.44° C | 100% | 1017 hPa | 0 mm | - | - | - |
| 1777573751 | 20° C | 100% | 1016.8 hPa | 0 mm | - | - | - |
| 1777573151 | 20° C | 100% | 1016.8 hPa | 0 mm | - | - | - |
| 1777572551 | 20.56° C | 100% | 1016.6 hPa | 0 mm | - | - | - |
| 1777571951 | 21.11° C | 100% | 1016.5 hPa | 0 mm | - | - | - |
| 1777571335 | 21.11° C | 100% | 1016.5 hPa | 0 mm | - | - | - |
| 1777570706 | 21.11° C | 100% | 1016.3 hPa | 0 mm | - | - | - |
| 1777570105 | 22.22° C | 100% | 1016.4 hPa | 0 mm | - | - | - |
| 1777569505 | 22.22° C | 100% | 1016.2 hPa | 0 mm | - | - | - |
| 1777568905 | 22.78° C | 100% | 1016.2 hPa | 0 mm | - | - | - |
| 1777568305 | 22.78° C | 100% | 1016.3 hPa | 0 mm | - | - | - |
| 1777567705 | 22.78° C | 100% | 1016.2 hPa | 0 mm | - | - | - |
| 1777567105 | 22.78° C | 100% | 1016.3 hPa | 0 mm | - | - | - |
| 1777566475 | 22.78° C | 100% | 1016.2 hPa | 0 mm | - | - | - |
| 1777565874 | 23.33° C | 100% | 1016.1 hPa | 0 mm | - | - | - |
| 1777565274 | 23.33° C | 100% | 1016 hPa | 0 mm | - | - | - |
| 1777564675 | 23.33° C | 100% | 1016.1 hPa | 0 mm | - | - | - |
| 1777564044 | 23.33° C | 100% | 1016 hPa | 0 mm | - | - | - |
* Rain latest hour (hover to see other rain measurements)
** Current wind speed in m/s (hover to see current wind gust speed)